Waarnemingen

Advertentie
Mijn weer
Gilze-Rijen, Nederland (6350): temperatuur & dauwpunt: 20.03.2017 00:00:00 - 26.03.2017 00:00:00 (CET)Gilze-Rijen, Nederland (6350): temperatuur 5cm: 20.03.2017 00:00:00 - 26.03.2017 00:00:00 (CET)Gilze-Rijen, Nederland (6350): windsnelheid & windstoten: 20.03.2017 00:00:00 - 26.03.2017 00:00:00 (CET)Gilze-Rijen, Nederland (6350): windrichting: 20.03.2017 00:00:00 - 26.03.2017 00:00:00 (CET)Gilze-Rijen, Nederland (6350): luchtdruk: 20.03.2017 00:00:00 - 26.03.2017 00:00:00 (CET)Gilze-Rijen, Nederland (6350): zicht: 20.03.2017 00:00:00 - 26.03.2017 00:00:00 (CET)Gilze-Rijen, Nederland (6350): neerslag: 20.03.2017 00:00:00 - 26.03.2017 00:00:00 (CET)
Datum & Tijd tt [°C] td [°C] tt 5cm [°C] ff [km/u] ff [kn] fx [km/u] fx [kn] dd ppp [hPa] vv [km] rr [mm]
26.03.2017 00:00:00 7,2 1,1 6,3 18 10 29 16 NO 1025,5 10 0,0
25.03.2017 23:00:00 7,7 0,2 6,4 18 10 29 16 NO 1025,7 10 0,0
25.03.2017 22:00:00 8,2 -0,8 7,2 18 10 29 16 NO 1025,8 10 0,0
25.03.2017 21:00:00 9,7 -1,6 8,6 18 10 29 16 NO 1026,0 10 0,0
25.03.2017 20:00:00 10,0 -1,5 8,9 18 10 25 14 NO 1025,8 10 0,0
25.03.2017 19:00:00 11,9 -2,6 10,9 18 10 36 19 NO 1025,4 10 0,0
25.03.2017 18:00:00 13,6 -3,5 13,2 26 14 43 23 NO 1025,3 10 0,0
25.03.2017 17:00:00 14,3 -5,9 14,7 29 16 50 27 NO 1025,7 10 0,0
25.03.2017 16:00:00 14,9 -2,4 15,9 34 18 47 25 NO 1026,3 10 0,0
25.03.2017 15:00:00 15,0 -0,8 16,5 31 17 47 25 NO 1027,0 10 0,0
25.03.2017 14:00:00 15,1 -0,2 17,0 26 14 43 23 NO 1028,0 10 0,0
25.03.2017 13:00:00 13,6 0,1 14,9 31 17 43 23 NO 1029,0 10 0,0
25.03.2017 12:00:00 13,5 1,3 15,0 26 14 43 23 NO 1029,6 10 0,0
25.03.2017 11:00:00 12,5 2,4 14,1 22 12 32 18 NO 1030,4 10 0,0
25.03.2017 10:00:00 10,4 1,6 11,5 21 11 29 16 NO 1030,9 10 0,0
25.03.2017 09:00:00 7,6 1,6 7,9 16 9 25 14 NO 1031,0 10 0,0
25.03.2017 08:00:00 4,8 1,2 4,5 15 8 22 12 NO 1031,0 10 0,0
25.03.2017 07:00:00 2,5 0,3 0,5 11 6 18 10 NO 1030,9 10 0,0
25.03.2017 06:00:00 2,5 0,1 1,6 15 8 18 10 NNO 1030,9 10 0,0
25.03.2017 05:00:00 3,0 0,5 1,5 13 7 18 10 NNO 1031,1 10 0,0
25.03.2017 04:00:00 3,3 0,7 2,5 15 8 18 10 NO 1031,2 10 0,0
25.03.2017 03:00:00 4,0 1,0 3,1 16 9 22 12 NNO 1031,2 10 0,0
25.03.2017 02:00:00 4,6 1,1 3,7 16 9 22 12 NNO 1031,6 10 0,0
25.03.2017 01:00:00 5,0 1,4 3,6 15 8 22 12 NO 1031,7 10 0,0
25.03.2017 00:00:00 6,4 1,5 5,0 15 8 18 10 NO 1031,9 10 0,0
24.03.2017 23:00:00 7,4 1,6 5,7 13 7 25 14 NO 1031,8 10 0,0
24.03.2017 22:00:00 9,0 2,0 7,6 16 9 36 19 NO 1031,4 10 0,0
24.03.2017 21:00:00 9,2 2,4 8,0 18 10 25 14 NO 1030,7 10 0,0
24.03.2017 20:00:00 8,3 2,8 5,7 11 6 22 12 NO 1030,1 10 0,0
24.03.2017 19:00:00 11,4 3,0 9,4 16 9 36 19 ONO 1029,9 10 0,0
24.03.2017 18:00:00 12,9 3,2 12,4 28 15 40 21 NO 1029,3 10 0,0
24.03.2017 17:00:00 13,9 3,6 14,3 24 13 36 19 ONO 1028,6 10 0,0
24.03.2017 16:00:00 14,3 4,3 15,3 22 12 40 21 ONO 1028,5 10 0,0
24.03.2017 15:00:00 13,9 4,3 15,2 24 13 40 21 ONO 1028,5 10 0,0
24.03.2017 14:00:00 13,4 4,0 15,7 22 12 36 19 O 1028,4 10 0,0
24.03.2017 13:00:00 12,6 4,5 14,6 28 15 40 21 O 1029,2 10 0,0
24.03.2017 12:00:00 11,6 4,3 12,9 28 15 40 21 ONO 1028,9 10 0,0
24.03.2017 11:00:00 10,0 3,7 11,9 24 13 36 19 O 1029,0 10 0,0
24.03.2017 10:00:00 9,3 4,2 10,1 24 13 36 19 O 1029,0 10 0,0
24.03.2017 09:00:00 7,6 3,8 7,4 18 10 36 19 O 1028,2 10 0,0
24.03.2017 08:00:00 6,6 3,7 6,1 21 11 32 18 ONO 1026,1 7 0,0
24.03.2017 07:00:00 5,7 3,7 4,8 16 9 29 16 ONO 1025,5 6 0,0
24.03.2017 06:00:00 5,6 3,8 4,6 21 11 29 16 ONO 1025,0 5 0,0
24.03.2017 05:00:00 5,7 3,9 4,7 18 10 32 18 ONO 1024,8 5 0,0
24.03.2017 04:00:00 5,5 3,8 4,6 16 9 29 16 ONO 1024,3 5 0,0
24.03.2017 03:00:00 5,9 3,9 4,7 16 9 25 14 ONO 1024,4 6 0,0
24.03.2017 02:00:00 5,7 3,6 4,8 13 7 25 14 ONO 1024,2 7 0,0
24.03.2017 01:00:00 6,4 3,8 5,3 15 8 25 14 ONO 1023,2 9 0,0
24.03.2017 00:00:00 6,9 4,0 6,1 18 10 36 19 ONO 1022,6 10 0,0
23.03.2017 23:00:00 7,6 4,1 6,9 24 13 36 19 NO 1021,3 10 0,0
23.03.2017 22:00:00 8,6 4,2 7,7 22 12 36 19 NO 1020,7 10 0,0
23.03.2017 21:00:00 9,8 3,9 8,7 21 11 36 19 NO 1019,8 10 0,0
23.03.2017 20:00:00 10,2 4,1 9,0 18 10 29 16 NO 1019,0 10 0,0
23.03.2017 19:00:00 11,2 4,7 10,2 21 11 36 19 NO 1017,9 10 0,0
23.03.2017 18:00:00 13,1 4,5 12,7 21 11 32 18 ONO 1017,3 10 0,0
23.03.2017 17:00:00 13,9 3,5 14,5 24 13 36 19 ONO 1016,7 10 0,0
23.03.2017 16:00:00 14,1 4,0 14,8 22 12 36 19 O 1016,4 10 0,0
23.03.2017 15:00:00 13,8 3,4 15,4 24 13 40 21 O 1016,3 10 0,0
23.03.2017 14:00:00 13,9 3,8 15,5 26 14 40 21 O 1016,1 10 0,0
23.03.2017 13:00:00 13,4 3,2 15,7 22 12 40 21 O 1016,1 10 0,0
23.03.2017 12:00:00 12,4 3,2 14,3 28 15 43 23 O 1015,9 10 0,0
23.03.2017 11:00:00 11,9 3,8 13,7 24 13 40 21 O 1016,0 10 0,0
23.03.2017 10:00:00 10,1 4,5 11,0 16 9 22 12 O 1016,1 10 0,0
23.03.2017 09:00:00 6,8 3,1 6,8 11 6 18 10 ONO 1015,8 10 0,0
23.03.2017 08:00:00 4,7 2,2 3,7 9 5 18 10 O 1015,3 10 0,0
23.03.2017 07:00:00 2,5 0,9 -0,7 9 5 14 8 O 1014,7 10 0,0
23.03.2017 06:00:00 1,6 1,0 -1,7 9 5 14 8 NO 1013,9 9 0,0
23.03.2017 05:00:00 1,0 0,0 -3,5 4 2 7 4 NO 1014,2 8 0,0
23.03.2017 04:00:00 1,7 1,2 -2,6 5 3 7 4 O 1014,3 9 0,0
23.03.2017 03:00:00 2,4 0,5 -2,0 4 2 7 4 OZO 1014,3 10 0,0
23.03.2017 02:00:00 5,1 2,2 0,7 8 4 14 8 O 1014,1 10 0,0
23.03.2017 01:00:00 5,1 2,1 2,6 9 5 14 8 OZO 1013,9 10 0,0
23.03.2017 00:00:00 4,9 2,1 0,6 9 5 11 6 O 1013,8 10 0,0
22.03.2017 23:00:00 6,2 2,5 4,0 9 5 14 8 OZO 1013,8 10 0,0
22.03.2017 22:00:00 6,5 2,4 5,0 11 6 18 10 OZO 1013,5 10 0,0
22.03.2017 21:00:00 7,5 2,5 6,2 11 6 22 12 OZO 1013,6 10 0,0
22.03.2017 20:00:00 9,3 3,0 8,3 11 6 22 12 OZO 1013,2 10 0,0
22.03.2017 19:00:00 10,2 2,7 9,4 13 7 22 12 OZO 1012,6 10 0,0
22.03.2017 18:00:00 10,9 1,1 10,0 9 5 22 12 ZZO 1012,2 10 0,0
22.03.2017 17:00:00 11,1 0,7 10,6 16 9 29 16 ZZO 1011,9 10 0,0
22.03.2017 16:00:00 11,9 0,8 13,2 22 12 36 19 Z 1012,0 10 0,0
22.03.2017 15:00:00 12,9 1,5 15,3 25 14 32 18 ZZO 1012,0 29 0,0
22.03.2017 14:00:00 12,1 0,7 15,0 22 12 36 19 ZO 1012,2 10 0,0
22.03.2017 13:00:00 12,1 0,1 14,5 22 12 36 19 ZZO 1012,7 10 0,0
22.03.2017 12:00:00 11,1 0,9 13,4 24 13 36 19 Z 1013,1 10 0,0
22.03.2017 11:00:00 10,0 0,5 11,5 21 11 29 16 ZZO 1013,4 10 0,0
22.03.2017 10:00:00 8,3 0,5 9,5 15 8 25 14 Z 1013,5 10 0,0
22.03.2017 09:00:00 5,9 0,9 6,2 13 7 18 10 ZZO 1013,4 10 0,0
22.03.2017 08:00:00 3,0 -0,3 2,2 11 6 14 8 ZZO 1013,1 10 0,0
22.03.2017 07:00:00 0,5 -1,5 -1,4 9 5 14 8 ZZO 1012,8 10 0,0
22.03.2017 06:00:00 0,7 -1,4 -0,8 11 6 14 8 ZZO 1013,0 10 0,0
22.03.2017 05:00:00 0,0 -2,1 -3,5 8 4 11 6 ZO 1013,1 10 0,0
22.03.2017 04:00:00 1,0 -1,4 -3,4 8 4 11 6 Z 1013,6 10 0,0
22.03.2017 03:00:00 2,1 -1,0 -2,9 4 2 11 6 Z 1013,4 10 0,0
22.03.2017 02:00:00 1,5 -1,1 -3,6 8 4 11 6 Z 1013,4 10 0,0
22.03.2017 01:00:00 2,2 -0,7 -1,0 9 5 11 6 Z 1013,4 10 0,0
22.03.2017 00:00:00 3,5 -0,6 -0,2 9 5 11 6 ZZW 1013,9 10 0,0
21.03.2017 23:00:00 3,4 -1,0 -1,3 5 3 11 6 Z 1013,5 10 0,0
21.03.2017 22:00:00 2,7 -1,3 -1,0 9 5 11 6 Z 1013,3 10 0,0
21.03.2017 21:00:00 3,8 -0,7 -1,2 5 3 7 4 Z 1013,1 10 0,0
21.03.2017 20:00:00 4,1 -0,8 -1,0 5 3 7 4 Z 1013,1 10 0,0
21.03.2017 19:00:00 6,7 -2,0 3,0 5 3 22 12 W 1012,8 10 0,0
21.03.2017 18:00:00 8,5 -1,9 8,3 13 7 32 18 W 1012,1 10 0,0
21.03.2017 17:00:00 9,1 -1,5 9,7 18 10 32 18 WZW 1011,7 10 0,0
21.03.2017 16:00:00 9,3 0,1 9,5 18 10 36 19 W 1011,4 10 0,0
21.03.2017 15:00:00 9,5 -0,9 10,6 22 12 32 18 W 1011,2 10 0,0
21.03.2017 14:00:00 8,9 -0,6 9,8 18 10 43 23 W 1010,9 10 0,0
21.03.2017 13:00:00 9,5 1,1 10,7 29 16 47 25 WNW 1010,4 10 0,0
21.03.2017 12:00:00 9,3 2,3 10,2 29 16 47 25 W 1009,8 10 0,0
21.03.2017 11:00:00 8,7 2,3 9,2 34 18 50 27 W 1009,2 10 0,0
21.03.2017 10:00:00 9,1 5,0 9,7 18 10 32 18 W 1008,3 10 0,2
21.03.2017 09:00:00 8,2 5,6 8,0 16 9 32 18 WZW 1007,6 10 0,1
21.03.2017 08:00:00 8,1 6,5 7,5 15 8 25 14 WZW 1007,0 10 0,0
21.03.2017 07:00:00 7,5 6,2 6,6 9 5 18 10 ZW 1006,5 10 0,0
21.03.2017 06:00:00 7,6 6,1 6,5 8 4 18 10 ZW 1006,4 10 0,0
21.03.2017 05:00:00 7,5 6,1 6,6 11 6 22 12 WZW 1006,1 10 0,0
21.03.2017 04:00:00 8,3 7,2 7,5 11 6 25 14 WZW 1005,7 10 0,0
21.03.2017 03:00:00 9,3 8,2 8,8 13 7 22 12 WZW 1005,5 10 0,0
21.03.2017 02:00:00 9,7 8,9 9,5 13 7 25 14 WZW 1005,4 10 0,2
21.03.2017 01:00:00 10,0 8,9 9,6 16 9 32 18 ZW 1005,3 10 0,1
21.03.2017 00:00:00 9,6 8,9 9,4 21 11 40 21 ZW 1004,9 4,3 0,8
20.03.2017 23:00:00 9,6 8,9 9,4 18 10 36 19 ZZW 1004,6 4,2 0,4
20.03.2017 22:00:00 9,7 9,0 9,5 18 10 36 19 ZW 1004,7 3,1 0,6
20.03.2017 21:00:00 10,0 8,8 9,7 22 12 43 23 ZW 1004,7 4,1 0,1
20.03.2017 20:00:00 11,1 7,7 10,4 26 14 40 21 ZZW 1004,3 10 0,0
20.03.2017 19:00:00 10,5 8,8 9,8 18 10 36 19 ZZW 1004,6 10 0,0
20.03.2017 18:00:00 10,1 9,3 9,9 22 12 40 21 ZZW 1005,1 3,1 0,3
20.03.2017 17:00:00 10,0 9,3 10,0 22 12 47 25 ZZW 1005,4 2,7 0,2
20.03.2017 16:00:00 10,9 8,3 10,7 28 15 47 25 ZZW 1005,5 10 0,0
20.03.2017 15:00:00 11,3 8,5 11,4 24 13 43 23 ZZW 1005,5 10 0,0
20.03.2017 14:00:00 11,7 8,1 11,6 26 14 50 27 ZZW 1005,7 10 0,0
20.03.2017 13:00:00 11,7 8,1 11,5 24 13 43 23 ZW 1006,2 10 0,0
20.03.2017 12:00:00 11,1 8,3 10,9 22 12 36 19 ZZW 1006,6 10 0,0
20.03.2017 11:00:00 10,5 8,6 10,4 22 12 40 21 ZZW 1006,6 10 0,1
20.03.2017 10:00:00 9,8 9,2 9,9 22 12 36 19 ZZW 1007,0 2,9 0,4
20.03.2017 09:00:00 9,7 9,2 9,7 21 11 36 19 ZZW 1007,1 2,4 0,4
20.03.2017 08:00:00 9,6 9,2 9,5 18 10 25 14 ZZW 1007,6 2,8 1,2
20.03.2017 07:00:00 10,1 9,3 9,8 16 9 25 14 ZW 1007,8 2,9 0,3
20.03.2017 06:00:00 10,0 9,3 9,8 16 9 25 14 ZZW 1007,5 4,1 0,1
20.03.2017 05:00:00 10,3 9,0 10,0 16 9 25 14 ZZW 1007,6 8 0,0
20.03.2017 04:00:00 10,5 9,2 10,2 15 8 29 16 ZW 1007,9 6 0,0
20.03.2017 03:00:00 10,9 8,8 10,6 16 9 32 18 ZW 1008,1 9 0,0
20.03.2017 02:00:00 11,2 8,5 10,9 16 9 29 16 ZW 1008,1 10 0,0
20.03.2017 01:00:00 11,4 8,4 11,0 16 9 32 18 ZW 1008,4 10 0,0
20.03.2017 00:00:00 11,3 8,6 10,9 18 10 36 19 WZW 1008,2 10 0,0

tt = temperatuur
td = dauwpunt
tt 5cm = temperatuur 5cm
ff = windsnelheid
fx = windstoten
dd = windrichting
ppp = luchtdruk
vv = zicht
rr = neerslag

Weerstations in de omgeving